Location: M�nchen
(48.1404°N, 11.6043°E)
Time: 00:10:32
(UTC+01:00)

Amateur Radio Satellites - All Passes

Search period start: 17 November 2017 23:40
Search period end: 18 November 2017 23:40
Location: M�nchen, 48.1404°N, 11.6043°E

Satellite Date Start Highest point End Downlink Frequencies (MHz)
Time Altitude Azimuth
AIST 2D 17 Nov 23:43:43 23:47:15 80° 284° (WNW) 23:50:46 435.315
SO-50 17 Nov 23:44:24 23:48:51 71° 310° (NW) 23:53:24 436.795
UNISAT 6 17 Nov 23:47:05 23:49:26 15° 302° (WNW) 23:51:47 437.425
NO-84 17 Nov 23:52:26 23:56:20 34° 224° (SW) 00:00:10 435.350 FM
TIGRISAT 17 Nov 23:52:44 23:54:58 14° 302° (WNW) 23:57:10 435.000
nSIGHT-1 18 Nov 00:06:36 00:09:48 69° 341° (NNW) 00:13:00 .
O/OREOS (USA 219) 18 Nov 00:08:53 00:13:26 65° 248° (WSW) 00:17:54 437.305
DX 1 18 Nov 00:21:24 00:25:27 38° 67° (ENE) 00:29:31 434.975-435.025
DUCHIFAT 1 18 Nov 00:22:32 00:26:41 63° 102° (ESE) 00:30:48 145.980
ESTCUBE 1 18 Nov 00:23:10 00:24:59 12° 273° (W) 00:26:49 437.505/2401.250
EO-79 18 Nov 00:24:33 00:28:47 85° 104° (ESE) 00:32:59 145.935-145.965
50 SAT 18 Nov 00:27:23 00:30:27 40° 71° (ENE) 00:33:33 437.505
PRISM 18 Nov 00:27:48 00:30:01 14° 301° (WNW) 00:32:14 437.425
RS-15 18 Nov 00:29:38 00:40:38 36° 3° (N) 00:51:14 29.354- 29.394
NANOSAT C BR1 18 Nov 00:30:39 00:34:52 88° 96° (E) 00:39:03 145.865
ISS 18 Nov 00:37:20 00:40:34 57° 345° (NNW) 00:43:49 437.550
POLYITAN 1 18 Nov 00:38:44 00:42:55 69° 287° (WNW) 00:47:04 437.675
SPROUT 18 Nov 00:53:22 00:56:30 20° 268° (W) 00:59:40 437.525
Gurwin Techsat 1B 18 Nov 00:56:15 00:59:48 18° 89° (E) 01:03:20 435.225
VELOX 1 18 Nov 00:59:32 01:03:14 26° 266° (W) 01:06:58 145.980
QB50P2 18 Nov 01:01:57 01:05:50 37° 292° (WNW) 01:09:41 145.880/145.840
Oscar 19 18 Nov 01:03:24 01:07:45 27° 94° (E) 01:12:05 437.125/150
PCSat 18 Nov 01:04:20 01:09:25 44° 115° (ESE) 01:14:33 145.827
UKube-1 18 Nov 01:11:59 01:16:17 78° 73° (ENE) 01:20:38 .
SO-50 18 Nov 01:26:59 01:30:07 18° 333° (NNW) 01:33:17 436.795
MOZHAYETS 4 18 Nov 01:30:55 01:34:38 25° 64° (ENE) 01:38:22
BUGSAT 1 18 Nov 01:31:33 01:35:39 89° 103° (ESE) 01:39:40 437.445
M-CUBED/EXP-1 PRIME 18 Nov 01:42:22 01:43:10 10° 93° (E) 01:43:59 437.505
nSIGHT-1 18 Nov 01:43:15 01:46:20 42° 1° (N) 01:49:24 .
AO-7 18 Nov 01:46:37 01:47:13 10° 81° (E) 01:47:49 .
DX 1 18 Nov 01:58:06 02:01:43 25° 266° (W) 02:05:22 434.975-435.025
DUCHIFAT 1 18 Nov 01:59:22 02:01:53 16° 300° (WNW) 02:04:23 145.980
50 SAT 18 Nov 02:01:09 02:02:47 13° 268° (W) 02:04:26 437.505
EO-79 18 Nov 02:02:09 02:03:54 12° 302° (WNW) 02:05:40 145.935-145.965
NANOSAT C BR1 18 Nov 02:08:18 02:09:55 12° 303° (WNW) 02:11:33 145.865
BEESAT 18 Nov 02:09:05 02:13:39 47° 69° (ENE) 02:18:14 436.000
ISS 18 Nov 02:14:13 02:17:23 44° 6° (N) 02:20:32 437.550
ITUPSAT 1 18 Nov 02:15:53 02:20:32 53° 70° (ENE) 02:25:12 437.325
Gurwin Techsat 1B 18 Nov 02:34:59 02:40:19 73° 287° (WNW) 02:45:37 435.225
Oscar 19 18 Nov 02:42:21 02:47:16 46° 292° (WNW) 02:52:10 437.125/150
RS-15 18 Nov 02:44:33 02:56:24 55° 36° (NE) 03:07:36 29.354- 29.394
ITAMSAT 1 18 Nov 02:47:49 02:50:59 16° 89° (E) 02:54:08 435.822/435.867
PCSat 18 Nov 02:47:51 02:52:54 38° 315° (NW) 02:58:00 145.827
UKube-1 18 Nov 02:51:05 02:52:51 12° 272° (W) 02:54:38 .
MOZHAYETS 4 18 Nov 03:07:15 03:11:35 42° 262° (W) 03:15:57
CUBESAT XI-V 18 Nov 03:07:45 03:12:12 51° 71° (ENE) 03:16:40 437.345
BUGSAT 1 18 Nov 03:09:02 03:10:20 11° 303° (WNW) 03:11:38 437.445
SO-50 18 Nov 03:12:10 03:12:26 10° 357° (N) 03:12:41 436.795
M-CUBED/EXP-1 PRIME 18 Nov 03:13:40 03:18:07 80° 108° (ESE) 03:22:44 437.505
nSIGHT-1 18 Nov 03:19:36 03:22:48 80° 19° (NNE) 03:26:00 .
AO-7 18 Nov 03:33:51 03:42:00 53° 102° (ESE) 03:50:06 .
BEESAT 3 18 Nov 03:42:21 03:46:02 37° 120° (ESE) 03:49:45 437.485
BEESAT 18 Nov 03:47:49 03:51:38 24° 267° (W) 03:55:29 436.000
ISS 18 Nov 03:50:45 03:54:01 77° 206° (SSW) 03:57:17 437.550
KKS-1 18 Nov 03:51:21 03:55:29 38° 68° (ENE) 03:59:40 437.445
ITUPSAT 1 18 Nov 03:55:03 03:58:39 21° 268° (W) 04:02:17 437.325
Gurwin Techsat 1B 18 Nov 04:16:48 04:19:22 14° 307° (NW) 04:21:56 435.225
ITAMSAT 1 18 Nov 04:25:49 04:31:04 79° 287° (WNW) 04:36:16 435.822/435.867
STARS 18 Nov 04:27:01 04:31:06 37° 67° (ENE) 04:35:11 437.465
PCSat 18 Nov 04:35:11 04:37:54 14° 339° (NNW) 04:40:36 145.827
BEESAT 2 18 Nov 04:43:56 04:47:48 47° 122° (ESE) 04:51:44 435.950
CUBESAT XI-V 18 Nov 04:46:29 04:49:52 20° 269° (W) 04:53:17 437.345
M-CUBED/EXP-1 PRIME 18 Nov 04:49:15 04:52:00 16° 306° (NW) 04:54:49 437.505
SO-50 18 Nov 04:52:12 04:54:52 15° 22° (NNE) 04:57:33 436.795
nSIGHT-1 18 Nov 04:56:14 04:58:46 22° 219° (SW) 05:01:17 .
RS-15 18 Nov 04:57:38 05:09:15 63° 243° (WSW) 05:20:15 29.354- 29.394
DOVE 4 18 Nov 05:01:59 05:07:09 51° 98° (E) 05:12:07 437.250
AO-85 18 Nov 05:02:32 05:05:58 30° 117° (ESE) 05:09:32 145.980
XW-2B 18 Nov 05:09:11 05:09:35 10° 88° (E) 05:09:58 145.730 - 145.750
YUBILEINY 18 Nov 05:12:26 05:20:15 39° 84° (E) 05:28:08 435.215
BEESAT 3 18 Nov 05:20:01 05:23:37 31° 319° (NW) 05:27:14 437.485
AO-7 18 Nov 05:26:54 05:34:38 44° 303° (WNW) 05:42:22 .
ISS 18 Nov 05:28:04 05:30:04 15° 223° (SW) 05:32:04 437.550
KKS-1 18 Nov 05:28:22 05:32:08 26° 266° (W) 05:35:56 437.445
LilacSat-2 18 Nov 05:29:26 05:32:14 19° 92° (E) 05:35:03 437.200
CUTE-I 18 Nov 05:30:30 05:34:19 19° 90° (E) 05:38:06 437.470
XW-2C 18 Nov 05:32:25 05:35:13 19° 92° (E) 05:38:00 145.795 - 145.815
NUDT-PHONESAT 18 Nov 05:39:40 05:42:00 16° 91° (E) 05:44:19 437.300
STRAND 1 18 Nov 05:42:49 05:47:12 29° 63° (ENE) 05:51:36 437.568
XW-2F 18 Nov 05:46:33 05:49:43 25° 94° (E) 05:52:55 145.980 - 146.000
HO-68 18 Nov 05:47:53 05:51:49 15° 85° (E) 05:55:45 435.675
FO-29 18 Nov 05:48:17 05:52:16 16° 46° (NE) 05:56:28 435.910
STARS 18 Nov 06:03:45 06:07:30 27° 265° (W) 06:11:16 437.465
ITAMSAT 1 18 Nov 06:07:00 06:09:42 14° 307° (NW) 06:12:25 435.822/435.867
KAITUO 1B 18 Nov 06:20:58 06:24:37 48° 100° (E) 06:28:15 145.475/437.950
BEESAT 2 18 Nov 06:22:16 06:25:43 27° 321° (NW) 06:29:14 435.950
PCSat 18 Nov 06:23:01 06:23:52 10° 6° (N) 06:24:42 145.827
SEEDS 18 Nov 06:23:52 06:25:31 12° 87° (E) 06:27:09 437.485
XW-2D 18 Nov 06:25:43 06:29:32 79° 103° (ESE) 06:33:20 145.860 - 145.880
SO-50 18 Nov 06:31:56 06:36:25 47° 45° (NE) 06:40:57 436.795
DOVE 4 18 Nov 06:40:09 06:44:30 27° 298° (WNW) 06:48:44 437.250
XW-2B 18 Nov 06:40:25 06:44:14 74° 284° (WNW) 06:48:01 145.730 - 145.750
AO-85 18 Nov 06:42:37 06:46:16 35° 318° (NW) 06:50:08 145.980
LilacSat-2 18 Nov 07:03:06 07:06:39 38° 290° (WNW) 07:10:12 437.200
UWE-3 18 Nov 07:05:31 07:08:17 17° 90° (E) 07:11:02 435.000/436.395/437.385
XW-2C 18 Nov 07:06:00 07:09:31 37° 290° (WNW) 07:13:03 145.795 - 145.815
YUBILEINY 18 Nov 07:08:12 07:16:45 56° 287° (WNW) 07:25:26 435.215
CUTE-I 18 Nov 07:09:31 07:14:52 68° 289° (WNW) 07:20:11 437.470
NUDT-PHONESAT 18 Nov 07:12:32 07:16:04 43° 289° (WNW) 07:19:35 437.300
RS-15 18 Nov 07:13:09 07:18:54 15° 267° (W) 07:24:34 29.354- 29.394
CUTE 1.7 + AOD 2 18 Nov 07:19:24 07:23:40 69° 102° (ESE) 07:27:56 437.475
XW-2F 18 Nov 07:20:32 07:23:49 28° 292° (WNW) 07:27:05 145.980 - 146.000
STRAND 1 18 Nov 07:21:16 07:26:11 45° 261° (W) 07:31:09 437.568
AO-7 18 Nov 07:21:25 07:25:19 14° 327° (NNW) 07:29:14 .
FO-29 18 Nov 07:29:17 07:35:45 62° 68° (ENE) 07:43:03 435.910
HO-68 18 Nov 07:33:33 07:40:47 75° 105° (ESE) 07:47:57 435.675
CUBEBUG 2 18 Nov 07:36:00 07:40:12 60° 101° (E) 07:44:17 437.445
UNISAT 6 18 Nov 07:36:45 07:39:05 14° 58° (ENE) 07:41:25 437.425
TIGRISAT 18 Nov 07:42:03 07:44:30 14° 59° (ENE) 07:46:56 435.000
KAITUO 1B 18 Nov 07:55:53 07:58:15 16° 297° (WNW) 08:00:37 145.475/437.950
AO-73 18 Nov 07:57:24 08:00:58 28° 95° (E) 08:04:32 145.935
SEEDS 18 Nov 07:57:29 08:01:43 77° 286° (WNW) 08:05:57 437.485
XW-2A 18 Nov 08:00:39 08:03:58 62° 101° (E) 08:07:18 145.665 - 145.685
XW-2D 18 Nov 08:01:57 08:03:08 11° 301° (WNW) 08:04:18 145.860 - 145.880
PCSat 18 Nov 08:05:27 08:09:30 21° 32° (NNE) 08:13:32 145.827
PRISM 18 Nov 08:11:45 08:12:47 11° 56° (NE) 08:13:49 437.425
SO-50 18 Nov 08:12:43 08:16:42 29° 244° (WSW) 08:20:43 436.795
AAUSAT CUBESAT 2 18 Nov 08:15:55 08:20:07 77° 101° (ESE) 08:24:19 437.432
Oscar 11 18 Nov 08:18:00 08:21:55 32° 96° (E) 08:25:48 .
AO-85 18 Nov 08:26:32 08:27:57 11° 342° (NNW) 08:29:24 145.980
ZACube-1 18 Nov 08:39:45 08:43:55 87° 101° (E) 08:48:04 437.345
UWE-3 18 Nov 08:41:01 08:45:04 49° 289° (WNW) 08:49:03 435.000/436.395/437.385
CUTE-I 18 Nov 08:51:35 08:53:57 13° 308° (NW) 08:56:19 437.470
CUTE 1.7 + AOD 2 18 Nov 08:56:32 08:58:59 15° 300° (WNW) 09:01:26 437.475
UNISAT 6 18 Nov 09:10:35 09:15:12 85° 259° (WSW) 09:19:44 437.425
YUBILEINY 18 Nov 09:11:34 09:16:01 15° 313° (NW) 09:20:30 435.215
CUBEBUG 2 18 Nov 09:13:44 09:16:22 16° 300° (WNW) 09:18:57 437.445
FO-29 18 Nov 09:15:39 09:21:19 30° 271° (W) 09:27:36 435.910
TIGRISAT 18 Nov 09:16:00 09:20:37 82° 258° (WSW) 09:25:08 435.000
DELFI C3 18 Nov 09:21:59 09:25:38 33° 96° (E) 09:29:15 145.870
HO-68 18 Nov 09:22:02 09:27:54 28° 306° (NW) 09:33:46 435.675
AO-73 18 Nov 09:33:34 09:37:12 30° 293° (WNW) 09:40:50 145.935
XW-2A 18 Nov 09:35:21 09:36:11 11° 299° (WNW) 09:37:04 145.665 - 145.685
SEEDS 18 Nov 09:36:05 09:36:39 10° 304° (WNW) 09:37:13 437.485
Max Valier Satellite 18 Nov 09:40:17 09:43:41 35° 97° (E) 09:47:04 145.860
PRISM 18 Nov 09:43:12 09:47:20 83° 72° (ENE) 09:51:30 437.425
EO-79 18 Nov 09:46:59 09:48:56 13° 58° (ENE) 09:50:54 145.935-145.965
EO-88 18 Nov 09:47:27 09:50:43 30° 96° (E) 09:53:59 145.990 - 145.960
PCSat 18 Nov 09:48:21 09:53:48 77° 54° (NE) 09:59:13 145.827
NANOSAT C BR1 18 Nov 09:52:43 09:54:43 13° 58° (ENE) 09:56:42 145.865
AAUSAT CUBESAT 2 18 Nov 09:52:57 09:55:00 13° 301° (WNW) 09:57:02 437.432
Oscar 11 18 Nov 09:54:14 09:57:58 29° 294° (WNW) 10:01:41 .
POLYITAN 1 18 Nov 10:00:18 10:03:03 17° 61° (ENE) 10:05:49 437.675
ZACube-1 18 Nov 10:18:06 10:19:33 12° 302° (WNW) 10:21:01 437.345
BEESAT 3 18 Nov 10:18:40 10:21:07 15° 29° (NNE) 10:23:33 437.485
AIST 2D 18 Nov 10:20:49 10:24:13 60° 74° (ENE) 10:27:39 435.315
QB50P2 18 Nov 10:22:10 10:25:51 29° 66° (ENE) 10:29:32 145.880/145.840
LO-87 18 Nov 10:25:22 10:26:38 11° 89° (E) 10:27:53 145.935 - 145.965
ESTCUBE 1 18 Nov 10:33:23 10:35:39 14° 88° (E) 10:37:54 437.505/2401.250
Oscar 19 18 Nov 10:49:52 10:50:16 10° 50° (NE) 10:50:40 437.125/150
BUGSAT 1 18 Nov 10:51:36 10:53:27 13° 58° (ENE) 10:55:17 437.445
UNISAT 6 18 Nov 10:51:40 10:52:33 10° 274° (W) 10:53:26 437.425
DELFI C3 18 Nov 10:56:56 11:00:14 25° 294° (WNW) 11:03:31 145.870
TIGRISAT 18 Nov 10:57:48 10:57:58 10° 274° (W) 10:58:07 435.000
Max Valier Satellite 18 Nov 11:14:35 11:17:17 20° 295° (WNW) 11:20:00 145.860
DUCHIFAT 1 18 Nov 11:17:08 11:21:21 73° 74° (ENE) 11:25:34 145.980
EO-79 18 Nov 11:19:50 11:24:05 83° 258° (WSW) 11:28:22 145.935-145.965
BEESAT 2 18 Nov 11:21:00 11:23:52 18° 32° (NNE) 11:26:43 435.950
EO-88 18 Nov 11:21:20 11:24:14 22° 294° (WNW) 11:27:07 145.990 - 145.960
PRISM 18 Nov 11:22:15 11:23:10 11° 273° (W) 11:24:05 437.425
NANOSAT C BR1 18 Nov 11:25:34 11:29:49 81° 257° (WSW) 11:34:04 145.865
PCSat 18 Nov 11:32:52 11:36:35 19° 254° (WSW) 11:40:17 145.827
POLYITAN 1 18 Nov 11:34:13 11:38:25 59° 259° (W) 11:42:37 437.675
AO-85 18 Nov 11:49:12 11:52:31 20° 32° (NNE) 11:56:01 145.980
BEESAT 3 18 Nov 11:55:23 11:59:22 72° 51° (NE) 12:03:15 437.485
LO-87 18 Nov 11:56:54 12:00:24 56° 287° (WNW) 12:03:51 145.935 - 145.965
AIST 2D 18 Nov 11:57:11 11:57:47 10° 272° (W) 11:58:22 435.315
QB50P2 18 Nov 11:57:46 12:01:34 31° 264° (W) 12:05:23 145.880/145.840
ESTCUBE 1 18 Nov 12:08:27 12:12:59 76° 286° (WNW) 12:17:30 437.505/2401.250
Gurwin Techsat 1B 18 Nov 12:20:21 12:25:16 40° 66° (ENE) 12:30:13 435.225
Oscar 19 18 Nov 12:23:31 12:28:31 56° 69° (ENE) 12:33:32 437.125/150
BUGSAT 1 18 Nov 12:23:58 12:28:11 84° 253° (WSW) 12:32:24 437.445
M-CUBED/EXP-1 PRIME 18 Nov 12:29:55 12:32:30 19° 56° (NE) 12:35:13 437.505
SPROUT 18 Nov 12:33:43 12:37:54 54° 100° (E) 12:42:03 437.525
FALCONSAT 3 18 Nov 12:36:58 12:37:46 11° 172° (S) 12:38:33 435.103
VELOX 1 18 Nov 12:44:48 12:49:07 45° 99° (E) 12:53:23 145.980
AO-7 18 Nov 12:46:22 12:52:59 28° 48° (NE) 12:59:38 .
DUCHIFAT 1 18 Nov 12:55:41 12:57:30 12° 272° (W) 12:59:20 145.980
BEESAT 2 18 Nov 12:58:05 13:02:09 89° 244° (WSW) 13:06:09 435.950
50 SAT 18 Nov 13:13:36 13:16:06 20° 95° (E) 13:18:34 437.505
AO-85 18 Nov 13:28:57 13:33:33 83° 52° (NE) 13:38:32 145.980
BEESAT 3 18 Nov 13:34:19 13:36:21 14° 249° (WSW) 13:38:22 437.485
DX 1 18 Nov 13:41:36 13:45:48 42° 99° (E) 13:49:57 434.975-435.025
ESTCUBE 1 18 Nov 13:47:37 13:48:59 11° 305° (NW) 13:50:22 437.505/2401.250
Gurwin Techsat 1B 18 Nov 14:00:31 14:05:17 33° 265° (W) 14:10:05 435.225
M-CUBED/EXP-1 PRIME 18 Nov 14:03:15 14:06:36 42° 256° (WSW) 14:10:14 437.505
Oscar 19 18 Nov 14:04:15 14:08:11 22° 268° (W) 14:12:08 437.125/150
ITAMSAT 1 18 Nov 14:08:34 14:13:19 36° 65° (ENE) 14:18:06 435.822/435.867
SPROUT 18 Nov 14:10:28 14:13:25 18° 299° (WNW) 14:16:20 437.525
FALCONSAT 3 18 Nov 14:14:59 14:15:55 11° 187° (S) 14:16:53 435.103
VELOX 1 18 Nov 14:21:47 14:25:18 23° 297° (WNW) 14:28:48 145.980
O/OREOS (USA 219) 18 Nov 14:24:16 14:28:51 74° 114° (ESE) 14:33:28 437.305
UKube-1 18 Nov 14:31:05 14:35:27 85° 101° (E) 14:39:47 .
DOVE 4 18 Nov 14:36:05 14:38:21 13° 54° (NE) 14:40:39 437.250
AO-7 18 Nov 14:36:33 14:44:51 88° 249° (WSW) 14:53:14 .
BEESAT 2 18 Nov 14:38:08 14:39:11 11° 251° (WSW) 14:40:15 435.950
50 SAT 18 Nov 14:45:28 14:48:12 25° 292° (WNW) 14:50:55 437.505
MOZHAYETS 4 18 Nov 14:58:19 15:02:28 33° 96° (E) 15:06:36
AO-85 18 Nov 15:10:33 15:13:30 16° 248° (WSW) 15:16:34 145.980
YUBILEINY 18 Nov 15:17:23 15:24:18 24° 58° (ENE) 15:31:10 435.215
DX 1 18 Nov 15:18:13 15:21:45 24° 297° (WNW) 15:25:16 434.975-435.025
BEESAT 18 Nov 15:42:48 15:47:34 67° 102° (ESE) 15:52:17 436.000
ITAMSAT 1 18 Nov 15:47:59 15:52:46 36° 263° (W) 15:57:36 435.822/435.867
ITUPSAT 1 18 Nov 15:50:08 15:54:55 76° 104° (ESE) 15:59:40 437.325
O/OREOS (USA 219) 18 Nov 16:05:33 16:08:48 19° 314° (NW) 16:12:04 437.305
UKube-1 18 Nov 16:08:46 16:10:50 13° 303° (WNW) 16:12:54 .
DOVE 4 18 Nov 16:10:04 16:15:03 72° 73° (ENE) 16:20:17 437.250
LilacSat-2 18 Nov 16:15:07 16:17:34 17° 63° (ENE) 16:20:02 437.200
XW-2C 18 Nov 16:17:28 16:19:53 17° 63° (ENE) 16:22:18 145.795 - 145.815
HO-68 18 Nov 16:20:54 16:25:51 20° 49° (NE) 16:30:48 435.675
NUDT-PHONESAT 18 Nov 16:22:45 16:24:31 13° 61° (ENE) 16:26:17 437.300
XW-2F 18 Nov 16:30:53 16:33:43 21° 65° (ENE) 16:36:34 145.980 - 146.000
AO-7 18 Nov 16:32:46 16:38:45 22° 271° (W) 16:44:47 .
MOZHAYETS 4 18 Nov 16:35:34 16:39:34 31° 294° (WNW) 16:43:34
CUBESAT XI-V 18 Nov 16:37:27 16:42:09 78° 104° (ESE) 16:46:51 437.345
NO-84 18 Nov 16:45:56 16:49:40 52° 140° (SE) 16:53:40 435.350 FM
CUTE-I 18 Nov 16:55:20 17:00:24 44° 67° (ENE) 17:05:30 437.470
CUBEBUG 2 18 Nov 17:04:01 17:05:27 11° 57° (ENE) 17:06:52 437.445
KAITUO 1B 18 Nov 17:04:01 17:07:25 36° 70° (ENE) 17:10:50 145.475/437.950
XW-2D 18 Nov 17:09:54 17:13:35 61° 73° (ENE) 17:17:17 145.860 - 145.880
YUBILEINY 18 Nov 17:13:32 17:22:27 90° 82° (E) 17:31:18 435.215
KKS-1 18 Nov 17:14:40 17:18:59 45° 99° (E) 17:23:14 437.445
RS-15 18 Nov 17:18:08 17:25:02 17° 94° (E) 17:31:53 29.354- 29.394
SEEDS 18 Nov 17:18:55 17:21:06 14° 60° (ENE) 17:23:18 437.485
BEESAT 18 Nov 17:21:35 17:24:51 19° 301° (WNW) 17:28:06 436.000
XW-2B 18 Nov 17:24:32 17:28:16 87° 76° (ENE) 17:32:03 145.730 - 145.750
ITUPSAT 1 18 Nov 17:29:11 17:32:11 17° 302° (WNW) 17:35:09 437.325
AAUSAT CUBESAT 2 18 Nov 17:38:03 17:38:19 10° 56° (ENE) 17:38:35 437.432
LilacSat-2 18 Nov 17:47:54 17:51:31 45° 261° (W) 17:55:10 437.200
STARS 18 Nov 17:48:31 17:52:42 41° 99° (E) 17:56:51 437.465
DOVE 4 18 Nov 17:49:59 17:53:18 17° 273° (W) 17:56:43 437.250
XW-2C 18 Nov 17:50:07 17:53:43 46° 261° (W) 17:57:21 145.795 - 145.815
NUDT-PHONESAT 18 Nov 17:54:19 17:57:55 59° 260° (W) 18:01:33 437.300
XW-2F 18 Nov 18:04:14 18:07:38 34° 263° (W) 18:11:05 145.980 - 146.000
ZACube-1 18 Nov 18:04:56 18:07:04 14° 59° (ENE) 18:09:10 437.345
HO-68 18 Nov 18:05:21 18:12:32 78° 70° (ENE) 18:19:46 435.675
UWE-3 18 Nov 18:05:26 18:08:59 24° 65° (ENE) 18:12:28 435.000/436.395/437.385
CUTE 1.7 + AOD 2 18 Nov 18:15:03 18:19:14 75° 76° (ENE) 18:23:28 437.475
CUBESAT XI-V 18 Nov 18:16:10 18:18:56 16° 302° (WNW) 18:21:43 437.345
NO-84 18 Nov 18:23:17 18:27:08 44° 341° (NNW) 18:31:11 435.350 FM
XW-2A 18 Nov 18:34:52 18:37:55 34° 70° (ENE) 18:40:58 145.665 - 145.685
CUTE-I 18 Nov 18:35:55 18:40:35 30° 265° (W) 18:45:19 437.470
CUBEBUG 2 18 Nov 18:36:43 18:41:20 77° 74° (ENE) 18:45:50 437.445
KAITUO 1B 18 Nov 18:38:54 18:41:32 18° 268° (W) 18:44:11 145.475/437.950
XW-2D 18 Nov 18:46:43 18:48:09 12° 271° (W) 18:49:35 145.860 - 145.880
KKS-1 18 Nov 18:51:44 18:55:17 23° 298° (WNW) 18:58:49 437.445
SEEDS 18 Nov 18:52:05 18:56:14 72° 259° (W) 19:00:26 437.485
AO-73 18 Nov 18:55:54 18:59:48 34° 68° (ENE) 19:03:39 145.935
AAUSAT CUBESAT 2 18 Nov 19:08:53 19:13:01 78° 73° (ENE) 19:17:10 437.432
YUBILEINY 18 Nov 19:11:45 19:18:02 22° 284° (WNW) 19:24:19 435.215
Oscar 11 18 Nov 19:15:56 19:19:55 38° 69° (ENE) 19:23:54 .
RS-15 18 Nov 19:22:54 19:34:57 65° 117° (ESE) 19:46:56 29.354- 29.394
STARS 18 Nov 19:25:16 19:28:50 24° 297° (WNW) 19:32:22 437.465
STRAND 1 18 Nov 19:27:46 19:32:44 47° 99° (E) 19:37:39 437.568
ZACube-1 18 Nov 19:38:26 19:42:47 79° 257° (WSW) 19:47:05 437.345
UWE-3 18 Nov 19:40:58 19:45:14 42° 262° (W) 19:49:24 435.000/436.395/437.385
CUTE 1.7 + AOD 2 18 Nov 19:53:57 19:55:36 12° 273° (W) 19:57:15 437.475
HO-68 18 Nov 19:55:25 20:00:59 24° 270° (W) 20:06:37 435.675
NO-84 18 Nov 20:01:28 20:05:12 31° 2° (N) 20:09:03 435.350 FM
XW-2A 18 Nov 20:08:38 20:10:45 16° 268° (W) 20:12:52 145.665 - 145.685
DELFI C3 18 Nov 20:10:22 20:13:51 30° 68° (ENE) 20:17:22 145.870
CUBEBUG 2 18 Nov 20:16:11 20:18:27 13° 272° (W) 20:20:41 437.445
FO-29 18 Nov 20:19:26 20:26:58 46° 95° (E) 20:34:12 435.910
Max Valier Satellite 18 Nov 20:22:23 20:25:30 27° 68° (ENE) 20:28:38 145.860
EO-88 18 Nov 20:28:29 20:31:23 23° 66° (ENE) 20:34:18 145.990 - 145.960
AO-73 18 Nov 20:32:27 20:36:05 26° 266° (W) 20:39:41 145.935
AAUSAT CUBESAT 2 18 Nov 20:47:46 20:49:00 11° 273° (W) 20:50:15 437.432
Oscar 11 18 Nov 20:52:41 20:56:10 24° 267° (W) 20:59:41 .
UNISAT 6 18 Nov 20:59:54 21:02:24 15° 89° (E) 21:04:51 437.425
TIGRISAT 18 Nov 21:05:05 21:07:40 15° 89° (E) 21:10:12 435.000
STRAND 1 18 Nov 21:07:24 21:11:42 28° 298° (WNW) 21:15:58 437.568
RS-15 18 Nov 21:35:53 21:47:58 55° 324° (NW) 21:59:51 29.354- 29.394
ESTCUBE 1 18 Nov 21:35:55 21:39:10 20° 61° (ENE) 21:42:26 437.505/2401.250
nSIGHT-1 18 Nov 21:36:11 21:38:10 15° 137° (SE) 21:40:10 .
NO-84 18 Nov 21:39:05 21:43:14 52° 23° (NNE) 21:47:25 435.350 FM
DELFI C3 18 Nov 21:45:15 21:48:36 26° 266° (W) 21:51:59 145.870
Max Valier Satellite 18 Nov 21:56:16 21:59:18 24° 265° (W) 22:02:21 145.860
EO-88 18 Nov 22:01:44 22:04:54 29° 264° (W) 22:08:07 145.990 - 145.960
FO-29 18 Nov 22:04:30 22:11:59 49° 296° (WNW) 22:19:15 435.910
ISS 18 Nov 22:09:19 22:12:01 24° 142° (SE) 22:14:43 437.550
SO-50 18 Nov 22:29:42 22:33:49 38° 119° (ESE) 22:37:59 436.795
UNISAT 6 18 Nov 22:35:16 22:39:32 61° 288° (WNW) 22:43:44 437.425
LO-87 18 Nov 22:35:29 22:39:06 86° 260° (W) 22:42:45 145.935 - 145.965
TIGRISAT 18 Nov 22:40:31 22:44:46 59° 288° (WNW) 22:48:56 435.000
O/OREOS (USA 219) 18 Nov 22:51:45 22:55:57 35° 55° (NE) 23:00:07 437.305
PRISM 18 Nov 22:55:50 23:00:03 82° 105° (ESE) 23:04:12 437.425
EO-79 18 Nov 23:02:34 23:04:19 12° 88° (E) 23:06:05 145.935-145.965
NANOSAT C BR1 18 Nov 23:07:54 23:09:41 12° 88° (E) 23:11:27 145.865
nSIGHT-1 18 Nov 23:10:46 23:13:59 79° 154° (SSE) 23:17:12 .
ESTCUBE 1 18 Nov 23:11:14 23:15:36 54° 260° (W) 23:20:02 437.505/2401.250
AIST 2D 18 Nov 23:14:57 23:18:21 44° 99° (E) 23:21:44 435.315
POLYITAN 1 18 Nov 23:16:10 23:18:57 17° 91° (E) 23:21:43 437.675
NO-84 18 Nov 23:16:33 23:20:37 43° 222° (SW) 23:24:38 435.350 FM
SPROUT 18 Nov 23:29:53 23:34:08 64° 73° (ENE) 23:38:24 437.525
